Regional Weather Roundup
Issued by NWS

Home | Current Version | Previous Version | Graphics & Text | Print | Product List | Glossary On
Versions: 1 2 3 4 5 6 7 8 9 10 11 12 13 14 15 16 17 18 19 20 21 22 23 24 25 26 27 28 29 30 31 32 33 34 35 36 37 38 39 40 41 42 43 44 45 46 47 48 49 50
000
ASUS43 KIND 292259
RWRIN

WEATHER ROUNDUP FOR INDIANA
NATIONAL WEATHER SERVICE INDIANAPOLIS IN
700 PM EDT WED MAR 29 2017

NOTE: "FAIR" INDICATES FEW OR NO CLOUDS BELOW 12,000 FEET WITH NO
SIGNIFICANT WEATHER AND/OR OBSTRUCTIONS TO VISIBILITY.

* - STATION DOES NOT REPORT WEATHER SUCH AS PRECIPITATION OR FOG.

+ - STATION NOT QUALITY CONTROLLED BY THE NATIONAL WEATHER SERVICE.
    USE DATA WITH CAUTION...ESPECIALLY DEWPOINT AND RELATIVE
    HUMIDITY OBSERVATIONS.

INZ001>003-010>013-019-020-300000-
NORTHWEST INDIANA

CITY           SKY/WX    TMP DP  RH WIND       PRES   REMARKS
GARY /AIRPORT/ CLOUDY    46  37  71 E15G26    30.07F
MONTICELLO +   CLOUDY    55  38  51 E9G23     30.05R

$$

LMZ046-743>745-300000-
SOUTHERN LAKE MICHIGAN

STATION/POSITION TIME  TEMP    WIND        PRES    WAVE
                       AIR SEA DIR/SP/G            HT
                 (UTC) (F)     (DEG/KT/KT) (MB)    (FT)
BURNS HARBOR     2240   53      90/ 15/ 21 1018.3F
MICHIGAN CITY    2230   54      60/ 19/ 22   N/A

$$

INZ004-005-014>016-021>024-300000-
NORTH CENTRAL INDIANA

CITY           SKY/WX    TMP DP  RH WIND       PRES   REMARKS
ELKHART        SUNNY     54  32  43 E16       30.11F
GOSHEN         CLOUDY    52  31  44 E17       30.10F
SOUTH BEND     PTSUNNY   53  31  42 E15G24    30.09F

$$

INZ006>009-017-018-025>027-300000-
NORTHEAST INDIANA

CITY           SKY/WX    TMP DP  RH WIND       PRES   REMARKS
ANGOLA *+      SUNNY     50  36  57 E9        30.19S
FORT WAYNE     CLOUDY    53  33  46 E23       30.15F
KENDALLVILLE + PTSUNNY   50  32  49 E17G23    30.15F

$$

INZ028-029-035-036-043>045-051>053-300000-
WEST CENTRAL INDIANA

CITY           SKY/WX    TMP DP  RH WIND       PRES   REMARKS
CRAWFORDSVL +  CLOUDY    55  44  66 E14       30.02S
GREENCASTLE +  CLOUDY    55  45  67 E13G20    30.03S
LAFAYETTE      CLOUDY    55  42  61 E23       30.02F
TERRE HAUTE    PTSUNNY   58  46  64 E15       29.99S

$$

INZ030>032-037>040-046>048-054>057-064-065-300000-
CENTRAL INDIANA

CITY           SKY/WX    TMP DP  RH WIND       PRES   REMARKS
COLUMBUS       MOSUNNY   57  48  72 E16       30.05S
INDIANAPOLIS   CLOUDY    59  42  53 E16       30.02F
-EAGLE CREEK   CLOUDY    60  41  49 E15G24    30.02F
KOKOMO +       PTSUNNY   54  41  61 E20G26    30.08F
SHELBYVILLE    CLOUDY    59  43  55 E15       30.04F

$$

INZ033-034-041-042-049-050-058-059-300000-
EAST CENTRAL INDIANA

CITY           SKY/WX    TMP DP  RH WIND       PRES   REMARKS
MUNCIE         CLOUDY    57  42  57 E17G26    30.07F
RICHMOND +     CLOUDY    57  41  54 E13       30.09F

$$

INZ060-061-067>069-081>083-085>088-300000-
SOUTHWEST INDIANA

CITY           SKY/WX    TMP DP  RH WIND       PRES   REMARKS
EVANSVILLE     MOSUNNY   69  53  56 E16       29.91F
HUNTINGBURG *+ MOSUNNY   64  52  64 E10       29.95S

$$

INZ062-063-066-070>080-084-089>092-300000-
SOUTH CENTRAL AND SOUTHEAST INDIANA

CITY           SKY/WX    TMP DP  RH WIND       PRES   REMARKS
BLOOMINGTON    PTSUNNY   64  44  48 E15       30.00R
MADISON *+     SUNNY     61  45  55 E13G18    30.03F
SEYMOUR +      SUNNY     64  48  55 E9        30.02S

$$





USA.gov is the U.S. government's official web portal to all federal, state and local government web resources and services.